Year,Month,Day,Hour,Minute,Value (Times are PST for temperature in C)
2011,04,29,00,00,4.80
2011,04,29,00,01,4.80
2011,04,29,00,02,4.80
2011,04,29,00,03,4.80
2011,04,29,00,04,4.80
2011,04,29,00,05,4.80
2011,04,29,00,06,4.80
2011,04,29,00,07,4.80
2011,04,29,00,08,4.70
2011,04,29,00,09,4.70
2011,04,29,00,10,4.70
2011,04,29,00,11,4.70
2011,04,29,00,12,4.70
2011,04,29,00,13,4.70
2011,04,29,00,14,4.70
2011,04,29,00,15,4.70
2011,04,29,00,16,4.70
2011,04,29,00,17,4.70
2011,04,29,00,18,4.70
2011,04,29,00,19,4.60
2011,04,29,00,20,4.60
2011,04,29,00,21,4.60
2011,04,29,00,22,4.60
2011,04,29,00,23,4.60
2011,04,29,00,24,4.50
2011,04,29,00,25,4.50
2011,04,29,00,26,4.50
2011,04,29,00,27,4.50
2011,04,29,00,28,4.50
2011,04,29,00,29,4.40
2011,04,29,00,30,4.50
2011,04,29,00,31,4.50
2011,04,29,00,32,4.50
2011,04,29,00,33,4.50
2011,04,29,00,34,4.60
2011,04,29,00,35,4.60
2011,04,29,00,36,4.60
2011,04,29,00,37,4.70
2011,04,29,00,38,4.70
2011,04,29,00,39,4.70
2011,04,29,00,40,4.70
2011,04,29,00,41,4.70
2011,04,29,00,42,4.70
2011,04,29,00,43,4.70
2011,04,29,00,44,4.70
2011,04,29,00,45,4.80
2011,04,29,00,46,4.80
2011,04,29,00,47,4.80
2011,04,29,00,48,4.80
2011,04,29,00,49,4.80
2011,04,29,00,50,4.80
2011,04,29,00,51,4.80
2011,04,29,00,52,4.90
2011,04,29,00,53,4.90
2011,04,29,00,54,4.90
2011,04,29,00,55,5.00
2011,04,29,00,56,5.00
2011,04,29,00,57,5.10
2011,04,29,00,58,5.10
2011,04,29,00,59,5.10
2011,04,29,01,00,5.10
2011,04,29,01,01,5.20
2011,04,29,01,02,5.20
2011,04,29,01,03,5.20
2011,04,29,01,04,5.20
2011,04,29,01,05,5.20
2011,04,29,01,06,5.20
2011,04,29,01,07,5.20
2011,04,29,01,08,5.20
2011,04,29,01,09,5.20
2011,04,29,01,10,5.20
2011,04,29,01,11,5.20
2011,04,29,01,12,5.20
2011,04,29,01,13,5.20
2011,04,29,01,14,5.20
2011,04,29,01,15,5.20
2011,04,29,01,16,5.20
2011,04,29,01,17,5.20
2011,04,29,01,18,5.20
2011,04,29,01,19,5.30
2011,04,29,01,20,5.30
2011,04,29,01,21,5.30
2011,04,29,01,22,5.30
2011,04,29,01,23,5.40
2011,04,29,01,24,5.40
2011,04,29,01,25,5.50
2011,04,29,01,26,5.50
2011,04,29,01,27,5.60
2011,04,29,01,28,5.50
2011,04,29,01,29,5.60
2011,04,29,01,30,5.60
2011,04,29,01,31,5.60
2011,04,29,01,32,5.60
2011,04,29,01,33,5.60
2011,04,29,01,34,5.50
2011,04,29,01,35,5.50
2011,04,29,01,36,5.50
2011,04,29,01,37,5.50
2011,04,29,01,38,5.50
2011,04,29,01,39,5.50
2011,04,29,01,40,5.40
2011,04,29,01,41,5.40
2011,04,29,01,42,5.40
2011,04,29,01,43,5.40
2011,04,29,01,44,5.40
2011,04,29,01,45,5.40
2011,04,29,01,46,5.40
2011,04,29,01,47,5.40
2011,04,29,01,48,5.40
2011,04,29,01,49,5.40
2011,04,29,01,50,5.40
2011,04,29,01,51,5.40
2011,04,29,01,52,5.40
2011,04,29,01,53,5.30
2011,04,29,01,54,5.30
2011,04,29,01,55,5.30
2011,04,29,01,56,5.30
2011,04,29,01,57,5.30
2011,04,29,01,58,5.30
2011,04,29,01,59,5.30
2011,04,29,02,00,5.30
2011,04,29,02,01,5.30
2011,04,29,02,02,5.30
2011,04,29,02,03,5.30
2011,04,29,02,04,5.30
2011,04,29,02,05,5.30
2011,04,29,02,06,5.30
2011,04,29,02,07,5.40
2011,04,29,02,08,5.40
2011,04,29,02,09,5.40
2011,04,29,02,10,5.30
2011,04,29,02,11,5.30
2011,04,29,02,12,5.30
2011,04,29,02,13,5.30
2011,04,29,02,14,5.30
2011,04,29,02,15,5.30
2011,04,29,02,16,5.30
2011,04,29,02,17,5.30
2011,04,29,02,18,5.30
2011,04,29,02,19,5.30
2011,04,29,02,20,5.30
2011,04,29,02,21,5.30
2011,04,29,02,22,5.30
2011,04,29,02,23,5.30
2011,04,29,02,24,5.30
2011,04,29,02,25,5.30
2011,04,29,02,26,5.20
2011,04,29,02,27,5.30
2011,04,29,02,28,5.30
2011,04,29,02,29,5.30
2011,04,29,02,30,5.30
2011,04,29,02,31,5.20
2011,04,29,02,32,5.20
2011,04,29,02,33,5.20
2011,04,29,02,34,5.20
2011,04,29,02,35,5.30
2011,04,29,02,36,5.30
2011,04,29,02,37,5.30
2011,04,29,02,38,5.30
2011,04,29,02,39,5.30
2011,04,29,02,40,5.30
2011,04,29,02,41,5.30
2011,04,29,02,42,5.30
2011,04,29,02,43,5.30
2011,04,29,02,44,5.30
2011,04,29,02,45,5.20
2011,04,29,02,46,5.30
2011,04,29,02,47,5.30
2011,04,29,02,48,5.30
2011,04,29,02,49,5.30
2011,04,29,02,50,5.30
2011,04,29,02,51,5.30
2011,04,29,02,52,5.30
2011,04,29,02,53,5.30
2011,04,29,02,54,5.30
2011,04,29,02,55,5.30
2011,04,29,02,56,5.30
2011,04,29,02,57,5.30
2011,04,29,02,58,5.30
2011,04,29,02,59,5.30
2011,04,29,03,00,5.30
2011,04,29,03,01,5.30
2011,04,29,03,02,5.30
2011,04,29,03,03,5.30
2011,04,29,03,04,5.30
2011,04,29,03,05,5.30
2011,04,29,03,06,5.30
2011,04,29,03,07,5.30
2011,04,29,03,08,5.30
2011,04,29,03,09,5.30
2011,04,29,03,10,5.30
2011,04,29,03,11,5.30
2011,04,29,03,12,5.30
2011,04,29,03,13,5.40
2011,04,29,03,14,5.40
2011,04,29,03,15,5.40
2011,04,29,03,16,5.40
2011,04,29,03,17,5.40
2011,04,29,03,18,5.40
2011,04,29,03,19,5.40
2011,04,29,03,20,5.40
2011,04,29,03,21,5.40
2011,04,29,03,22,5.50
2011,04,29,03,23,5.50
2011,04,29,03,24,5.50
2011,04,29,03,25,5.60
2011,04,29,03,26,5.60
2011,04,29,03,27,5.60
2011,04,29,03,28,5.60
2011,04,29,03,29,5.70
2011,04,29,03,30,5.70
2011,04,29,03,31,5.70
2011,04,29,03,32,5.70
2011,04,29,03,33,5.70
2011,04,29,03,34,5.70
2011,04,29,03,35,5.70
2011,04,29,03,36,5.70
2011,04,29,03,37,5.80
2011,04,29,03,38,5.80
2011,04,29,03,39,5.80
2011,04,29,03,40,5.80
2011,04,29,03,41,5.80
2011,04,29,03,42,5.80
2011,04,29,03,43,5.80
2011,04,29,03,44,5.80
2011,04,29,03,45,5.80
2011,04,29,03,46,5.80
2011,04,29,03,47,5.80
2011,04,29,03,48,5.80
2011,04,29,03,49,5.80
2011,04,29,03,50,5.80
2011,04,29,03,51,5.80
2011,04,29,03,52,5.80
2011,04,29,03,53,5.80
2011,04,29,03,54,5.80
2011,04,29,03,55,5.80
2011,04,29,03,56,5.80
2011,04,29,03,57,5.90
2011,04,29,03,58,5.90
2011,04,29,03,59,5.90
2011,04,29,04,00,5.90
2011,04,29,04,01,5.90
2011,04,29,04,02,5.90
2011,04,29,04,03,5.90
2011,04,29,04,04,5.90
2011,04,29,04,05,6.00
2011,04,29,04,06,6.00
2011,04,29,04,07,6.00
2011,04,29,04,08,6.10
2011,04,29,04,09,6.10
2011,04,29,04,10,6.10
2011,04,29,04,11,6.10
2011,04,29,04,12,6.10
2011,04,29,04,13,6.10
2011,04,29,04,14,6.10
2011,04,29,04,15,6.10
2011,04,29,04,16,6.20
2011,04,29,04,17,6.20
2011,04,29,04,18,6.20
2011,04,29,04,19,6.20
2011,04,29,04,20,6.20
2011,04,29,04,21,6.20
2011,04,29,04,22,6.20
2011,04,29,04,23,6.20
2011,04,29,04,24,6.20
2011,04,29,04,25,6.20
2011,04,29,04,26,6.20
2011,04,29,04,27,6.20
2011,04,29,04,28,6.20
2011,04,29,04,29,6.20
2011,04,29,04,30,6.20
2011,04,29,04,31,6.20
2011,04,29,04,32,6.20
2011,04,29,04,33,6.20
2011,04,29,04,34,6.20
2011,04,29,04,35,6.20
2011,04,29,04,36,6.20
2011,04,29,04,37,6.20
2011,04,29,04,38,6.20
2011,04,29,04,39,6.10
2011,04,29,04,40,6.10
2011,04,29,04,41,6.10
2011,04,29,04,42,6.10
2011,04,29,04,43,6.00
2011,04,29,04,44,6.00
2011,04,29,04,45,6.00
2011,04,29,04,46,6.00
2011,04,29,04,47,5.90
2011,04,29,04,48,5.90
2011,04,29,04,49,5.90
2011,04,29,04,50,5.90
2011,04,29,04,51,5.80
2011,04,29,04,52,5.80
2011,04,29,04,53,5.80
2011,04,29,04,54,5.80
2011,04,29,04,55,5.80
2011,04,29,04,56,5.70
2011,04,29,04,57,5.70
2011,04,29,04,58,5.70
2011,04,29,04,59,5.70
2011,04,29,05,00,5.70
2011,04,29,05,01,5.70
2011,04,29,05,02,5.60
2011,04,29,05,03,5.60
2011,04,29,05,04,5.50
2011,04,29,05,05,5.50
2011,04,29,05,06,5.40
2011,04,29,05,07,5.40
2011,04,29,05,08,5.40
2011,04,29,05,09,5.30
2011,04,29,05,10,5.30
2011,04,29,05,11,5.30
2011,04,29,05,12,5.30
2011,04,29,05,13,5.20
2011,04,29,05,14,5.20
2011,04,29,05,15,5.20
2011,04,29,05,16,5.20
2011,04,29,05,17,5.20
2011,04,29,05,18,5.20
2011,04,29,05,19,5.20
2011,04,29,05,20,5.10
2011,04,29,05,21,5.10
2011,04,29,05,22,5.10
2011,04,29,05,23,5.10
2011,04,29,05,24,5.00
2011,04,29,05,25,5.00
2011,04,29,05,26,5.00
2011,04,29,05,27,5.00
2011,04,29,05,28,5.00
2011,04,29,05,29,4.90
2011,04,29,05,30,4.90
2011,04,29,05,31,4.90
2011,04,29,05,32,4.90
2011,04,29,05,33,4.80
2011,04,29,05,34,4.80
2011,04,29,05,35,4.80
2011,04,29,05,36,4.80
2011,04,29,05,37,4.80
2011,04,29,05,38,4.80
2011,04,29,05,39,4.80
2011,04,29,05,40,4.70
2011,04,29,05,41,4.70
2011,04,29,05,42,4.70
2011,04,29,05,43,4.70
2011,04,29,05,44,4.70
2011,04,29,05,45,4.70
2011,04,29,05,46,4.70
2011,04,29,05,47,4.70
2011,04,29,05,48,4.70
2011,04,29,05,49,4.70
2011,04,29,05,50,4.70
2011,04,29,05,51,4.80
2011,04,29,05,52,4.80
2011,04,29,05,53,4.80
2011,04,29,05,54,4.80
2011,04,29,05,55,4.80
2011,04,29,05,56,4.80
2011,04,29,05,57,4.80
2011,04,29,05,58,4.80
2011,04,29,05,59,4.80
2011,04,29,06,00,4.80
2011,04,29,06,01,4.80
2011,04,29,06,02,4.80
2011,04,29,06,03,4.80
2011,04,29,06,04,4.80
2011,04,29,06,05,4.80
2011,04,29,06,06,4.70
2011,04,29,06,07,4.70
2011,04,29,06,08,4.70
2011,04,29,06,09,4.70
2011,04,29,06,10,4.70
2011,04,29,06,11,4.70
2011,04,29,06,12,4.70
2011,04,29,06,13,4.80
2011,04,29,06,14,4.70
2011,04,29,06,15,4.70
2011,04,29,06,16,4.70
2011,04,29,06,17,4.70
2011,04,29,06,18,4.70
2011,04,29,06,19,4.70
2011,04,29,06,20,4.70
2011,04,29,06,21,4.70
2011,04,29,06,22,4.70
2011,04,29,06,23,4.70
2011,04,29,06,24,4.70
2011,04,29,06,25,4.60
2011,04,29,06,26,4.60
2011,04,29,06,27,4.60
2011,04,29,06,28,4.60
2011,04,29,06,29,4.60
2011,04,29,06,30,4.60
2011,04,29,06,31,4.60
2011,04,29,06,32,4.70
2011,04,29,06,33,4.70
2011,04,29,06,34,4.70
2011,04,29,06,35,4.70
2011,04,29,06,36,4.70
2011,04,29,06,37,4.70
2011,04,29,06,38,4.70
2011,04,29,06,39,4.70
2011,04,29,06,40,4.70
2011,04,29,06,41,4.80
2011,04,29,06,42,4.80
2011,04,29,06,43,4.80
2011,04,29,06,44,4.80
2011,04,29,06,45,4.80
2011,04,29,06,46,4.80
2011,04,29,06,47,4.80
2011,04,29,06,48,4.90
2011,04,29,06,49,4.90
2011,04,29,06,50,4.90
2011,04,29,06,51,4.90
2011,04,29,06,52,4.90
2011,04,29,06,53,5.00
2011,04,29,06,54,5.00
2011,04,29,06,55,5.00
2011,04,29,06,56,5.00
2011,04,29,06,57,5.00
2011,04,29,06,58,4.90
2011,04,29,06,59,4.90
2011,04,29,07,00,5.00
2011,04,29,07,01,5.00
2011,04,29,07,02,5.00
2011,04,29,07,03,5.00
2011,04,29,07,04,5.00
2011,04,29,07,05,5.10
2011,04,29,07,06,5.10
2011,04,29,07,07,5.10
2011,04,29,07,08,5.10
2011,04,29,07,09,5.10
2011,04,29,07,10,5.20
2011,04,29,07,11,5.20
2011,04,29,07,12,5.30
2011,04,29,07,13,5.30
2011,04,29,07,14,5.40
2011,04,29,07,15,5.50
2011,04,29,07,16,5.60
2011,04,29,07,17,5.70
2011,04,29,07,18,5.70
2011,04,29,07,19,5.80
2011,04,29,07,20,5.80
2011,04,29,07,21,5.90
2011,04,29,07,22,6.00
2011,04,29,07,23,6.00
2011,04,29,07,24,6.10
2011,04,29,07,25,6.20
2011,04,29,07,26,6.20
2011,04,29,07,27,6.30
2011,04,29,07,28,6.30
2011,04,29,07,29,6.40
2011,04,29,07,30,6.40
2011,04,29,07,31,6.40
2011,04,29,07,32,6.50
2011,04,29,07,33,6.50
2011,04,29,07,34,6.60
2011,04,29,07,35,6.60
2011,04,29,07,36,6.60
2011,04,29,07,37,6.70
2011,04,29,07,38,6.70
2011,04,29,07,39,6.80
2011,04,29,07,40,6.80
2011,04,29,07,41,6.90
2011,04,29,07,42,6.90
2011,04,29,07,43,7.00
2011,04,29,07,44,7.00
2011,04,29,07,45,7.10
2011,04,29,07,46,7.10
2011,04,29,07,47,7.20
2011,04,29,07,48,7.20
2011,04,29,07,49,7.20
2011,04,29,07,50,7.20
2011,04,29,07,51,7.30
2011,04,29,07,52,7.30
2011,04,29,07,53,7.40
2011,04,29,07,54,7.40
2011,04,29,07,55,7.40
2011,04,29,07,56,7.50
2011,04,29,07,57,7.50
2011,04,29,07,58,7.60
2011,04,29,07,59,7.60
2011,04,29,08,00,7.60
2011,04,29,08,01,7.70
2011,04,29,08,02,7.70
2011,04,29,08,03,7.70
2011,04,29,08,04,7.70
2011,04,29,08,05,7.80
2011,04,29,08,06,7.80
2011,04,29,08,07,7.80
2011,04,29,08,08,7.80
2011,04,29,08,09,7.80
2011,04,29,08,10,7.80
2011,04,29,08,11,7.80
2011,04,29,08,12,7.90
2011,04,29,08,13,7.90
2011,04,29,08,14,8.00
2011,04,29,08,15,8.00
2011,04,29,08,16,8.00
2011,04,29,08,17,8.00
2011,04,29,08,18,8.00
2011,04,29,08,19,8.00
2011,04,29,08,20,7.90
2011,04,29,08,21,7.90
2011,04,29,08,22,7.90
2011,04,29,08,23,7.90
2011,04,29,08,24,7.90
2011,04,29,08,25,8.00
2011,04,29,08,26,8.00
2011,04,29,08,27,8.10
2011,04,29,08,28,8.10
2011,04,29,08,29,8.10
2011,04,29,08,30,8.10
2011,04,29,08,31,8.20
2011,04,29,08,32,8.20
2011,04,29,08,33,8.20
2011,04,29,08,34,8.20
2011,04,29,08,35,8.30
2011,04,29,08,36,8.30
2011,04,29,08,37,8.40
2011,04,29,08,38,8.40
2011,04,29,08,39,8.50
2011,04,29,08,40,8.50
2011,04,29,08,41,8.50
2011,04,29,08,42,8.60
2011,04,29,08,43,8.70
2011,04,29,08,44,8.70
2011,04,29,08,45,8.80
2011,04,29,08,46,8.90
2011,04,29,08,47,8.90
2011,04,29,08,48,9.00
2011,04,29,08,49,9.00
2011,04,29,08,50,9.10
2011,04,29,08,51,9.20
2011,04,29,08,52,9.20
2011,04,29,08,53,9.30
2011,04,29,08,54,9.30
2011,04,29,08,55,9.30
2011,04,29,08,56,9.30
2011,04,29,08,57,9.40
2011,04,29,08,58,9.30
2011,04,29,08,59,9.30
2011,04,29,09,00,9.30
2011,04,29,09,01,9.30
2011,04,29,09,02,9.30
2011,04,29,09,03,9.30
2011,04,29,09,04,9.40
2011,04,29,09,05,9.40
2011,04,29,09,06,9.40
2011,04,29,09,07,9.40
2011,04,29,09,08,9.40
2011,04,29,09,09,9.40
2011,04,29,09,10,9.40
2011,04,29,09,11,9.40
2011,04,29,09,12,9.40
2011,04,29,09,13,9.30
2011,04,29,09,14,9.30
2011,04,29,09,15,9.20
2011,04,29,09,16,9.10
2011,04,29,09,17,9.10
2011,04,29,09,18,9.10
2011,04,29,09,19,9.10
2011,04,29,09,20,9.20
2011,04,29,09,21,9.20
2011,04,29,09,22,9.20
2011,04,29,09,23,9.30
2011,04,29,09,24,9.30
2011,04,29,09,25,9.30
2011,04,29,09,26,9.30
2011,04,29,09,27,9.30
2011,04,29,09,28,9.40
2011,04,29,09,29,9.40
2011,04,29,09,30,9.40
2011,04,29,09,31,9.30
2011,04,29,09,32,9.30
2011,04,29,09,33,9.40
2011,04,29,09,34,9.40
2011,04,29,09,35,9.40
2011,04,29,09,36,9.50
2011,04,29,09,37,9.60
2011,04,29,09,38,9.60
2011,04,29,09,39,9.70
2011,04,29,09,40,9.80
2011,04,29,09,41,9.90
2011,04,29,09,42,9.90
2011,04,29,09,43,10.00
2011,04,29,09,44,10.00
2011,04,29,09,45,10.00
2011,04,29,09,46,10.10
2011,04,29,09,47,10.10
2011,04,29,09,48,10.20
2011,04,29,09,49,10.20
2011,04,29,09,50,10.30
2011,04,29,09,51,10.30
2011,04,29,09,52,10.40
2011,04,29,09,53,10.40
2011,04,29,09,54,10.50
2011,04,29,09,55,10.60
2011,04,29,09,56,10.60
2011,04,29,09,57,10.60
2011,04,29,09,58,10.60
2011,04,29,09,59,10.50
2011,04,29,10,00,10.50
2011,04,29,10,01,10.40
2011,04,29,10,02,10.40
2011,04,29,10,03,10.40
2011,04,29,10,04,10.40
2011,04,29,10,05,10.30
2011,04,29,10,06,10.30
2011,04,29,10,07,10.20
2011,04,29,10,08,10.20
2011,04,29,10,09,10.30
2011,04,29,10,10,10.30
2011,04,29,10,11,10.30
2011,04,29,10,12,10.30
2011,04,29,10,13,10.30
2011,04,29,10,14,10.30
2011,04,29,10,15,10.30
2011,04,29,10,16,10.30
2011,04,29,10,17,10.30
2011,04,29,10,18,10.30
2011,04,29,10,19,10.30
2011,04,29,10,20,10.30
2011,04,29,10,21,10.30
2011,04,29,10,22,10.30
2011,04,29,10,23,10.30
2011,04,29,10,24,10.20
2011,04,29,10,25,10.10
2011,04,29,10,26,10.10
2011,04,29,10,27,10.00
2011,04,29,10,28,9.90
2011,04,29,10,29,9.80
2011,04,29,10,30,9.80
2011,04,29,10,31,9.80
2011,04,29,10,32,9.80
2011,04,29,10,33,9.80
2011,04,29,10,34,9.90
2011,04,29,10,35,9.90
2011,04,29,10,36,9.90
2011,04,29,10,37,10.00
2011,04,29,10,38,10.00
2011,04,29,10,39,10.00
2011,04,29,10,40,10.10
2011,04,29,10,41,10.10
2011,04,29,10,42,10.10
2011,04,29,10,43,10.10
2011,04,29,10,44,10.10
2011,04,29,10,45,10.10
2011,04,29,10,46,10.10
2011,04,29,10,47,10.20
2011,04,29,10,48,10.20
2011,04,29,10,49,10.30
2011,04,29,10,50,10.30
2011,04,29,10,51,10.30
2011,04,29,10,52,10.30
2011,04,29,10,53,10.40
2011,04,29,10,54,10.40
2011,04,29,10,55,10.40
2011,04,29,10,56,10.50
2011,04,29,10,57,10.50
2011,04,29,10,58,10.40
2011,04,29,10,59,10.50
2011,04,29,11,00,10.50
2011,04,29,11,01,10.60
2011,04,29,11,02,10.60
2011,04,29,11,03,10.50
2011,04,29,11,04,10.60
2011,04,29,11,05,10.60
2011,04,29,11,06,10.60
2011,04,29,11,07,10.60
2011,04,29,11,08,10.60
2011,04,29,11,09,10.60
2011,04,29,11,10,10.60
2011,04,29,11,11,10.70
2011,04,29,11,12,10.70
2011,04,29,11,13,10.80
2011,04,29,11,14,10.80
2011,04,29,11,15,10.90
2011,04,29,11,16,10.90
2011,04,29,11,17,11.00
2011,04,29,11,18,11.00
2011,04,29,11,19,11.00
2011,04,29,11,20,11.00
2011,04,29,11,21,10.90
2011,04,29,11,22,10.90
2011,04,29,11,23,10.80
2011,04,29,11,24,10.80
2011,04,29,11,25,10.80
2011,04,29,11,26,10.70
2011,04,29,11,27,10.60
2011,04,29,11,28,10.50
2011,04,29,11,29,10.50
2011,04,29,11,30,10.40
2011,04,29,11,31,10.30
2011,04,29,11,32,10.30
2011,04,29,11,33,10.30
2011,04,29,11,34,10.30
2011,04,29,11,35,10.20
2011,04,29,11,36,10.20
2011,04,29,11,37,10.10
2011,04,29,11,38,10.00
2011,04,29,11,39,10.00
2011,04,29,11,40,9.90
2011,04,29,11,41,9.90
2011,04,29,11,42,9.90
2011,04,29,11,43,9.90
2011,04,29,11,44,9.90
2011,04,29,11,45,9.90
2011,04,29,11,46,10.00
2011,04,29,11,47,10.00
2011,04,29,11,48,10.10
2011,04,29,11,49,10.10
2011,04,29,11,50,10.20
2011,04,29,11,51,10.20
2011,04,29,11,52,10.20
2011,04,29,11,53,10.30
2011,04,29,11,54,10.30
2011,04,29,11,55,10.40
2011,04,29,11,56,10.50
2011,04,29,11,57,10.60
2011,04,29,11,58,10.60
2011,04,29,11,59,10.70
2011,04,29,12,00,10.70
2011,04,29,12,01,10.80
2011,04,29,12,02,10.80
2011,04,29,12,03,10.80
2011,04,29,12,04,10.90
2011,04,29,12,05,10.90
2011,04,29,12,06,11.00
2011,04,29,12,07,11.10
2011,04,29,12,08,11.20
2011,04,29,12,09,11.20
2011,04,29,12,10,11.20
2011,04,29,12,11,11.30
2011,04,29,12,12,11.30
2011,04,29,12,13,11.30
2011,04,29,12,14,11.30
2011,04,29,12,15,11.30
2011,04,29,12,16,11.30
2011,04,29,12,17,11.20
2011,04,29,12,18,11.10
2011,04,29,12,19,11.10
2011,04,29,12,20,11.00
2011,04,29,12,21,10.90
2011,04,29,12,22,10.90
2011,04,29,12,23,10.90
2011,04,29,12,24,10.90
2011,04,29,12,25,10.90
2011,04,29,12,26,11.00
2011,04,29,12,27,11.00
2011,04,29,12,28,11.10
2011,04,29,12,29,11.20
2011,04,29,12,30,11.20
2011,04,29,12,31,11.30
2011,04,29,12,32,11.40
2011,04,29,12,33,11.50
2011,04,29,12,34,11.60
2011,04,29,12,35,11.70
2011,04,29,12,36,11.80
2011,04,29,12,37,11.90
2011,04,29,12,38,12.00
2011,04,29,12,39,12.10
2011,04,29,12,40,12.10
2011,04,29,12,41,12.20
2011,04,29,12,42,12.20
2011,04,29,12,43,12.30
2011,04,29,12,44,12.20
2011,04,29,12,45,12.20
2011,04,29,12,46,12.20
2011,04,29,12,47,12.20
2011,04,29,12,48,12.20
2011,04,29,12,49,12.10
2011,04,29,12,50,12.00
2011,04,29,12,51,11.90
2011,04,29,12,52,11.80
2011,04,29,12,53,11.80
2011,04,29,12,54,11.70
2011,04,29,12,55,11.70
2011,04,29,12,56,11.70
2011,04,29,12,57,11.60
2011,04,29,12,58,11.60
2011,04,29,12,59,11.60
2011,04,29,13,00,11.70
2011,04,29,13,01,11.70
2011,04,29,13,02,11.80
2011,04,29,13,03,11.80
2011,04,29,13,04,11.80
2011,04,29,13,05,11.70
2011,04,29,13,06,11.70
2011,04,29,13,07,11.60
2011,04,29,13,08,11.50
2011,04,29,13,09,11.40
2011,04,29,13,10,11.30
2011,04,29,13,11,11.20
2011,04,29,13,12,11.10
2011,04,29,13,13,11.00
2011,04,29,13,14,10.90
2011,04,29,13,15,10.80
2011,04,29,13,16,10.70
2011,04,29,13,17,10.60
2011,04,29,13,18,10.60
2011,04,29,13,19,10.60
2011,04,29,13,20,10.60
2011,04,29,13,21,10.60
2011,04,29,13,22,10.60
2011,04,29,13,23,10.50
2011,04,29,13,24,10.50
2011,04,29,13,25,10.50
2011,04,29,13,26,10.50
2011,04,29,13,27,10.50
2011,04,29,13,28,10.50
2011,04,29,13,29,10.60
2011,04,29,13,30,10.60
2011,04,29,13,31,10.70
2011,04,29,13,32,10.70
2011,04,29,13,33,10.80
2011,04,29,13,34,10.90
2011,04,29,13,35,11.00
2011,04,29,13,36,11.10
2011,04,29,13,37,11.20
2011,04,29,13,38,11.20
2011,04,29,13,39,11.20
2011,04,29,13,40,11.20
2011,04,29,13,41,11.10
2011,04,29,13,42,11.00
2011,04,29,13,43,11.00
2011,04,29,13,44,10.90
2011,04,29,13,45,10.80
2011,04,29,13,46,10.80
2011,04,29,13,47,10.80
2011,04,29,13,48,10.70
2011,04,29,13,49,10.60
2011,04,29,13,50,10.60
2011,04,29,13,51,10.70
2011,04,29,13,52,10.70
2011,04,29,13,53,10.70
2011,04,29,13,54,10.70
2011,04,29,13,55,10.70
2011,04,29,13,56,10.70
2011,04,29,13,57,10.70
2011,04,29,13,58,10.70
2011,04,29,13,59,10.60
2011,04,29,14,00,10.60
2011,04,29,14,01,10.50
2011,04,29,14,02,10.50
2011,04,29,14,03,10.40
2011,04,29,14,04,10.30
2011,04,29,14,05,10.30
2011,04,29,14,06,10.20
2011,04,29,14,07,10.10
2011,04,29,14,08,10.10
2011,04,29,14,09,10.00
2011,04,29,14,10,10.00
2011,04,29,14,11,10.00
2011,04,29,14,12,9.90
2011,04,29,14,13,9.90
2011,04,29,14,14,9.90
2011,04,29,14,15,9.90
2011,04,29,14,16,9.90
2011,04,29,14,17,10.00
2011,04,29,14,18,10.00
2011,04,29,14,19,10.00
2011,04,29,14,20,10.10
2011,04,29,14,21,10.10
2011,04,29,14,22,10.10
2011,04,29,14,23,10.20
2011,04,29,14,24,10.20
2011,04,29,14,25,10.30
2011,04,29,14,26,10.30
2011,04,29,14,27,10.40
2011,04,29,14,28,10.40
2011,04,29,14,29,10.40
2011,04,29,14,30,10.40
2011,04,29,14,31,10.50
2011,04,29,14,32,10.50
2011,04,29,14,33,10.50
2011,04,29,14,34,10.50
2011,04,29,14,35,10.60
2011,04,29,14,36,10.60
2011,04,29,14,37,10.60
2011,04,29,14,38,10.60
2011,04,29,14,39,10.60
2011,04,29,14,40,10.60
2011,04,29,14,41,10.60
2011,04,29,14,42,10.60
2011,04,29,14,43,10.70
2011,04,29,14,44,10.80
2011,04,29,14,45,10.80
2011,04,29,14,46,10.90
2011,04,29,14,47,11.00
2011,04,29,14,48,11.10
2011,04,29,14,49,11.10
2011,04,29,14,50,11.20
2011,04,29,14,51,11.30
2011,04,29,14,52,11.40
2011,04,29,14,53,11.50
2011,04,29,14,54,11.60
2011,04,29,14,55,11.70
2011,04,29,14,56,11.70
2011,04,29,14,57,11.60
2011,04,29,14,58,11.50
2011,04,29,14,59,11.40
2011,04,29,15,00,11.40
2011,04,29,15,01,11.30
2011,04,29,15,02,11.30
2011,04,29,15,03,11.30
2011,04,29,15,04,11.30
2011,04,29,15,05,11.30
2011,04,29,15,06,11.30
2011,04,29,15,07,11.30
2011,04,29,15,08,11.30
2011,04,29,15,09,11.30
2011,04,29,15,10,11.20
2011,04,29,15,11,11.20
2011,04,29,15,12,11.20
2011,04,29,15,13,11.10
2011,04,29,15,14,11.10
2011,04,29,15,15,11.10
2011,04,29,15,16,11.10
2011,04,29,15,17,11.10
2011,04,29,15,18,11.10
2011,04,29,15,19,11.10
2011,04,29,15,20,11.10
2011,04,29,15,21,11.20
2011,04,29,15,22,11.30
2011,04,29,15,23,11.30
2011,04,29,15,24,11.30
2011,04,29,15,25,11.30
2011,04,29,15,26,11.40
2011,04,29,15,27,11.40
2011,04,29,15,28,11.40
2011,04,29,15,29,11.40
2011,04,29,15,30,11.40
2011,04,29,15,31,11.40
2011,04,29,15,32,11.50
2011,04,29,15,33,11.60
2011,04,29,15,34,11.60
2011,04,29,15,35,11.70
2011,04,29,15,36,11.80
2011,04,29,15,37,11.80
2011,04,29,15,38,11.90
2011,04,29,15,39,11.90
2011,04,29,15,40,12.00
2011,04,29,15,41,12.10
2011,04,29,15,42,12.20
2011,04,29,15,43,12.20
2011,04,29,15,44,12.20
2011,04,29,15,45,12.20
2011,04,29,15,46,12.20
2011,04,29,15,47,12.10
2011,04,29,15,48,12.00
2011,04,29,15,49,11.90
2011,04,29,15,50,11.70
2011,04,29,15,51,11.60
2011,04,29,15,52,11.60
2011,04,29,15,53,11.60
2011,04,29,15,54,11.50
2011,04,29,15,55,11.50
2011,04,29,15,56,11.50
2011,04,29,15,57,11.50
2011,04,29,15,58,11.60
2011,04,29,15,59,11.60
2011,04,29,16,00,11.60
2011,04,29,16,01,11.60
2011,04,29,16,02,11.60
2011,04,29,16,03,11.60
2011,04,29,16,04,11.60
2011,04,29,16,05,11.60
2011,04,29,16,06,11.60
2011,04,29,16,07,11.60
2011,04,29,16,08,11.60
2011,04,29,16,09,11.50
2011,04,29,16,10,11.50
2011,04,29,16,11,11.50
2011,04,29,16,12,11.60
2011,04,29,16,13,11.60
2011,04,29,16,14,11.70
2011,04,29,16,15,11.80
2011,04,29,16,16,11.80
2011,04,29,16,17,11.80
2011,04,29,16,18,11.80
2011,04,29,16,19,11.80
2011,04,29,16,20,11.80
2011,04,29,16,21,11.90
2011,04,29,16,22,11.90
2011,04,29,16,23,11.80
2011,04,29,16,24,11.80
2011,04,29,16,25,11.80
2011,04,29,16,26,11.80
2011,04,29,16,27,11.90
2011,04,29,16,28,11.90
2011,04,29,16,29,11.90
2011,04,29,16,30,11.90
2011,04,29,16,31,11.90
2011,04,29,16,32,11.80
2011,04,29,16,33,11.70
2011,04,29,16,34,11.70
2011,04,29,16,35,11.80
2011,04,29,16,36,11.80
2011,04,29,16,37,11.90
2011,04,29,16,38,11.90
2011,04,29,16,39,12.00
2011,04,29,16,40,12.00
2011,04,29,16,41,12.00
2011,04,29,16,42,12.10
2011,04,29,16,43,12.10
2011,04,29,16,44,12.20
2011,04,29,16,45,12.30
2011,04,29,16,46,12.40
2011,04,29,16,47,12.50
2011,04,29,16,48,12.50
2011,04,29,16,49,12.60
2011,04,29,16,50,12.40
2011,04,29,16,51,12.30
2011,04,29,16,52,12.30
2011,04,29,16,53,12.30
2011,04,29,16,54,12.30
2011,04,29,16,55,12.20
2011,04,29,16,56,12.20
2011,04,29,16,57,12.20
2011,04,29,16,58,12.20
2011,04,29,16,59,12.20
2011,04,29,17,00,12.10
2011,04,29,17,01,12.00
2011,04,29,17,02,12.00
2011,04,29,17,03,11.90
2011,04,29,17,04,11.80
2011,04,29,17,05,11.70
2011,04,29,17,06,11.70
2011,04,29,17,07,11.70
2011,04,29,17,08,11.70
2011,04,29,17,09,11.70
2011,04,29,17,10,11.70
2011,04,29,17,11,11.70
2011,04,29,17,12,11.80
2011,04,29,17,13,11.80
2011,04,29,17,14,11.80
2011,04,29,17,15,11.90
2011,04,29,17,16,12.00
2011,04,29,17,17,12.00
2011,04,29,17,18,12.10
2011,04,29,17,19,12.10
2011,04,29,17,20,12.20
2011,04,29,17,21,12.20
2011,04,29,17,22,12.20
2011,04,29,17,23,12.30
2011,04,29,17,24,12.30
2011,04,29,17,25,12.30
2011,04,29,17,26,12.30
2011,04,29,17,27,12.40
2011,04,29,17,28,12.40
2011,04,29,17,29,12.40
2011,04,29,17,30,12.40
2011,04,29,17,31,12.40
2011,04,29,17,32,12.40
2011,04,29,17,33,12.40
2011,04,29,17,34,12.40
2011,04,29,17,35,12.40
2011,04,29,17,36,12.50
2011,04,29,17,37,12.40
2011,04,29,17,38,12.50
2011,04,29,17,39,12.50
2011,04,29,17,40,12.40
2011,04,29,17,41,12.30
2011,04,29,17,42,12.20
2011,04,29,17,43,12.00
2011,04,29,17,44,11.90
2011,04,29,17,45,11.80